This is the latest recevied weather packets stored in our database for station/object KC5DAQ-29. If no packets are shown the sender has not sent any weather packets the latest 1 day(s).
| Time | Temp. | Humidity | Pressure | Rain* | Wind** | Luminosity | Snow |
|---|---|---|---|---|---|---|---|
| 1777986723 | 24.44° C | 100% | 1006.4 hPa | 0 mm | 0.89 m/s, 183° | 113 W/m² | - |
| 1777986663 | 24.44° C | 100% | 1006.4 hPa | 0 mm | 0.89 m/s, 135° | 113 W/m² | - |
| 1777986604 | 24.44° C | 100% | 1006.4 hPa | 0 mm | 0.89 m/s, 185° | 150 W/m² | - |
| 1777986544 | 24.44° C | 100% | 1006.4 hPa | 0 mm | 0.89 m/s, 209° | 100 W/m² | - |
| 1777986482 | 24.44° C | 100% | 1006.4 hPa | 0 mm | 0.89 m/s, 220° | 100 W/m² | - |
| 1777986423 | 24.44° C | 100% | 1006.3 hPa | 0 mm | 0.89 m/s, 172° | 100 W/m² | - |
| 1777986364 | 24.44° C | 100% | 1006.3 hPa | 0 mm | 0.89 m/s, 159° | 139 W/m² | - |
| 1777986302 | 23.89° C | 100% | 1006.3 hPa | 0 mm | 0.45 m/s, 179° | 139 W/m² | - |
| 1777986242 | 23.89° C | 100% | 1006.3 hPa | 0 mm | 0.89 m/s, 154° | 172 W/m² | - |
| 1777986186 | 23.89° C | 100% | 1006.2 hPa | 0 mm | 1.79 m/s, 197° | 172 W/m² | - |
| 1777986122 | 23.89° C | 100% | 1006.2 hPa | 0 mm | 0.89 m/s, 166° | 172 W/m² | - |
| 1777986064 | 23.89° C | 100% | 1006.1 hPa | 0 mm | 0.89 m/s, 166° | 172 W/m² | - |
| 1777986003 | 23.89° C | 100% | 1006.1 hPa | 0 mm | 0.89 m/s, 165° | 172 W/m² | - |
| 1777985942 | 23.89° C | 100% | 1006.2 hPa | 0 mm | 0.89 m/s, 169° | 172 W/m² | - |
| 1777985883 | 23.89° C | 100% | 1006.1 hPa | 0 mm | 0 m/s | 127 W/m² | - |
| 1777985824 | 23.89° C | 100% | 1006.2 hPa | 0 mm | 0.89 m/s, 158° | 127 W/m² | - |
| 1777985763 | 23.89° C | 100% | 1006.1 hPa | 0 mm | 0.89 m/s, 149° | 127 W/m² | - |
| 1777985703 | 23.89° C | 100% | 1006.2 hPa | 0 mm | 0.45 m/s, 162° | 106 W/m² | - |
| 1777985642 | 23.89° C | 100% | 1006.2 hPa | 0 mm | 0.45 m/s, 157° | 106 W/m² | - |
| 1777985582 | 23.89° C | 100% | 1006.3 hPa | 0 mm | 1.34 m/s, 144° | 100 W/m² | - |
| 1777985523 | 23.89° C | 100% | 1006.3 hPa | 0 mm | 0.89 m/s, 220° | 125 W/m² | - |
| 1777985463 | 23.89° C | 100% | 1006.4 hPa | 0 mm | 0.45 m/s, 166° | 125 W/m² | - |
| 1777985404 | 23.89° C | 100% | 1006.3 hPa | 0 mm | 0 m/s | 125 W/m² | - |
| 1777985342 | 23.89° C | 100% | 1006.3 hPa | 0 mm | 0 m/s | 125 W/m² | - |
| 1777985284 | 23.89° C | 100% | 1006.4 hPa | 0 mm | 0 m/s | 123 W/m² | - |
* Rain latest hour (hover to see other rain measurements)
** Current wind speed in m/s (hover to see current wind gust speed)